User: anonymous   Login
Location: Chiroubles
(46.1812°N, 4.6660°E)
Time: 20:57:45
(UTC+00:00)
Language:

Cosmos 1733 Rocket - Orbit

View from above orbital plane
View from above orbital plane
View from above satellite
View from above satellite

Ground track
Ground track

The orbit data is extracted from the following two-line orbital elements,

1 16612U 86018B   22019.47581927  .00000261  00000-0  28136-4 0  9999
2 16612  82.5179 162.5962 0018113  21.2075  42.2806 14.84351782819151
Epoch (UTC): 19 January 2022 11:25:10
Eccentricity: 0.0018113
inclination: 82.5179°
perigee height: 603 km
apogee height: 628 km
right ascension of ascending node: 162.5962°
argument of perigee: 21.2075°
revolutions per day: 14.84351782
mean anomaly at epoch: 42.2806°
orbit number at epoch: 81915

The dashed part of the orbit path shows where the satellite is in the earth's shadow,  

DLR